Location: *
(50.3194°N, 7.1067°E)
Time: 14:53:10
(UTC+00:00)

SJ-6B - Pass Details

Date: 22 September 2019
Orbit: 509 x 583 km, 97.6° (Epoch: 19 October)

Event Time Altitude Azimuth Distance (km) Brightness Sun altitude
Exits shadow 18:10:45 - 131° (SE) 2,313 5.5 -7.2°
Reaches altitude 10° 18:11:54 10° 124° (SE) 1,890 5.0 -7.4°
Maximum altitude 18:15:24 28° 66° (ENE) 1,099 3.9 -7.9°
Drops below altitude 10° 18:18:52 10° 7° (N) 1,874 5.6 -8.5°
Sets 18:21:12 0° 356° (N) 2,764 6.6 -8.9°
